Location: Newark
(43.0000°N, 1.6781°W)
Time: 10:47:12
(UTC+00:00)

Courier 1B Rocket - All Passes

Search period start: 18 April 2021 00:00
Search period end: 28 April 2021 00:00
Orbit: 920 x 1202 km, 28.2° (Epoch: 17 April)

Date Brightness Start Highest point End Pass type
(mag) Time Alt. Az. Time Alt. Az. Time Alt. Az.
18 Apr - 01:44:09 10° SW 01:47:34 13° SSW 01:51:00 10° S night (unlit)
18 Apr - 19:07:00 10° S 19:09:05 11° SSE 19:11:11 10° SE daylight
18 Apr - 20:56:13 10° SW 21:01:25 22° S 21:06:51 10° ESE visible
18 Apr - 22:48:21 10° SW 22:54:03 25° S 22:59:59 10° SE visible
19 Apr - 00:42:08 10° SW 00:46:41 17° SSW 00:51:19 10° SSE night (unlit)
19 Apr - 19:56:04 10° SSW 20:00:36 19° SSE 20:05:20 10° ESE visible
19 Apr - 21:47:35 10° SW 21:53:08 25° S 21:58:58 10° SE visible
19 Apr - 23:40:42 10° WSW 23:45:47 20° SSW 23:51:03 10° SSE night (unlit)
20 Apr - 18:56:20 10° SSW 18:59:51 15° SSE 19:03:30 10° SE daylight
20 Apr - 20:46:59 10° SW 20:52:16 23° S 20:57:49 10° SE visible
20 Apr - 22:39:35 10° WSW 22:44:54 22° S 22:50:26 10° SE visible
21 Apr - 00:34:26 10° SW 00:37:27 13° SSW 00:40:29 10° S night (unlit)
21 Apr - 17:57:50 10° SSE 17:59:12 11° SSE 18:00:34 10° SE daylight
21 Apr - 19:46:37 10° SW 19:51:28 21° S 19:56:31 10° ESE visible
21 Apr - 21:38:41 10° SW 21:44:01 23° S 21:49:37 10° SE visible
21 Apr - 23:32:27 10° SW 23:36:36 16° SSW 23:40:52 10° SSE night (unlit)
22 Apr - 18:46:31 10° SSW 18:50:42 18° SSE 18:55:03 10° SE daylight
22 Apr - 20:37:58 10° SW 20:43:10 23° S 20:48:38 10° SE visible
22 Apr - 22:31:04 10° SW 22:35:45 19° SSW 22:40:37 10° SSE visible
23 Apr - 17:46:52 10° S 17:50:01 14° SSE 17:53:15 10° SE daylight
23 Apr - 19:37:26 10° SW 19:42:21 22° S 19:47:31 10° SE visible
23 Apr - 21:30:00 10° SW 21:34:54 21° S 21:40:03 10° SE visible
23 Apr - 23:25:04 10° SW 23:27:24 12° SSW 23:29:45 10° S night (unlit)
24 Apr - 16:48:59 10° SSE 16:49:23 10° SSE 16:49:46 10° SSE daylight
24 Apr - 18:37:05 10° SW 18:41:36 20° S 18:46:17 10° SE daylight
24 Apr - 20:29:08 10° SW 20:34:05 22° S 20:39:16 10° SE visible
24 Apr - 22:22:57 10° SW 22:26:35 15° SSW 22:30:21 10° SSE visible
25 Apr - 17:37:00 10° SSW 17:40:54 17° SSE 17:44:54 10° SE daylight
25 Apr - 19:28:27 10° SW 19:33:17 22° S 19:38:21 10° SE visible
25 Apr - 21:21:33 10° SW 21:25:47 17° SSW 21:30:12 10° SSE visible
26 Apr - 16:37:20 10° S 16:40:14 13° SSE 16:43:10 10° SE daylight
26 Apr - 18:27:54 10° SW 18:32:32 21° S 18:37:20 10° SE daylight
26 Apr - 20:20:29 10° SW 20:25:00 20° S 20:29:43 10° SE visible
26 Apr - 22:16:15 10° SSW 22:17:25 10° SSW 22:18:36 10° SSW visible
27 Apr - 17:27:32 10° SW 17:31:49 19° S 17:36:13 10° SE daylight
27 Apr - 19:19:38 10° SW 19:24:14 21° S 19:29:02 10° SE daylight
27 Apr - 21:13:36 10° SW 21:16:40 13° SSW 21:19:48 10° S visible
